weather.gov     
National Weather Service

Terminal Aerodrome Forecast
NWS Homepage
This page is being discontinued on March 12, 2014.
The same data is available at this site. Please update your bookmarks.
Thank you, and we apologize for the inconvenience.
Please send an email to SR-SRH.Webmaster@noaa.gov with any concerns.


Current Version
Previous Version:    01  02  03  04  05  06  07  08  09  10  11  12  13  14  15  16  17  18  19  20  21  22  23  24  25  26  27  28  29  30  
   31  32  33  34  35  36  37  38  39  40  41  
[Printable]
906
FTUS44 KLZK 192300
TAFLLQ
TAF
KLLQ 192327Z 2000/2024 04008KT P6SM OVC040
     FM200300 04006KT 5SM BR SCT015 OVC030
      TEMPO 2003/2006 BKN015
     FM200900 03003KT 5SM BR OVC012
      TEMPO 2010/2014 3SM BR OVC007
     FM201500 03003KT P6SM BKN015
     FM201700 04004KT P6SM SCT025 BKN060=


U.S. Dept. of Commerce
NOAA National Weather Service
1325 East West Highway
Silver Spring, MD 20910
E-mail: w-nws.webmaster@noaa.gov
Page last modified: May 16, 2007
NATIONAL WEATHER SERVICE: for Safety, for Work, for Fun - FOR LIFE